Regional Weather Roundup
Issued by NWS

Home | Current Version | Previous Version | Text Only | Print | Product List | Glossary Off
Versions: 1 2 3 4 5 6 7 8 9 10 11 12 13 14 15 16 17 18 19 20 21 22 23 24 25 26 27 28 29 30 31 32 33 34 35 36 37 38 39 40 41 42 43 44 45 46 47 48 49 50

762
ASUS43 KDMX 232006
RWRIA

WEATHER ROUNDUP FOR IOWA
NATIONAL WEATHER SERVICE DES MOINES IA
300 PM CDT WED AUG 23 2017

NOTE: "FAIR" INDICATES FEW OR NO CLOUDS BELOW 12,000 FEET WITH NO
SIGNIFICANT WEATHER AND/OR OBSTRUCTIONS TO VISIBILITY.

* - THESE STATIONS ARE NOT NWS STATIONS...THUS NOT UNDER NWS
QUALITY CONTROL.  THEY ALSO DO NOT REPORT WEATHER SUCH
AS PRECIPITATION OR FOG.

IAZ001>003-012>014-020>022-031>034-043>046-232100-
   NORTHWEST IOWA

CITY           SKY/WX    TMP DP  RH WIND       PRES   REMARKS
CARROLL *      SUNNY     75  54  46 CALM      30.11F
CHEROKEE *     SUNNY     77  55  46 SW8       30.10F
DENISON *      SUNNY     75  55  50 VRB5      30.12F
LE MARS *      SUNNY    N/A N/A N/A VRB7G13   30.08F
ORANGE CITY *  SUNNY     77  59  53 S6        30.09F
SHELDON *      SUNNY     77  55  47 S7        30.08F
SIOUX CITY     SUNNY     78  59  51 S10       30.09F
SPENCER        PTSUNNY   77  50  38 SW8       30.10F
STORM LAKE *   SUNNY     75  55  50 VRB5      30.11F
$$

IAZ055>058-069>071-079>083-090>094-232100-
   SOUTHWEST IOWA

CITY           SKY/WX    TMP DP  RH WIND       PRES   REMARKS
ATLANTIC *     SUNNY     75  54  46 SW5       30.11F
AUDUBON *      SUNNY     75  55  50 CALM      30.13F
CLARINDA *     SUNNY     77  57  50 CALM      30.13F
COUNCIL BLFS * SUNNY     77  57  50 W6        30.11F
CRESTON *      SUNNY     77  52  41 VRB6      30.13F
HARLAN  *      SUNNY     75  55  50 VRB5      30.15F
LAMONI         SUNNY     79  52  38 VRB3      30.11F
RED OAK *      SUNNY     77  55  47 VRB3      30.12F
SHENANDOAH *   SUNNY     77  57  50 VRB3      30.12F
$$

IAZ047>049-059>061-072>074-084-232100-
   CENTRAL IOWA

CITY           SKY/WX    TMP DP  RH WIND       PRES   REMARKS
AMES           MOSUNNY   76  57  51 NW6       30.10F
ANKENY *       SUNNY     77  52  41 NW12      30.11F
BOONE *        SUNNY     75  52  43 VRB5G17   30.10F
CHARITON *     SUNNY     77  52  41 CALM      30.10F
DES MOINES     MOSUNNY   80  49  33 W6        30.09F
GRINNELL*      SUNNY     74  53  48 CALM      30.12F
KNOXVILLE *    SUNNY     77  48  36 E7G13     30.09F
MARSHALLTOWN   SUNNY     77  51  40 NW8       30.10F
NEWTON *       SUNNY     75  50  41 N8        30.11F
PELLA *        SUNNY     78  44  30 CALM      30.11F
PERRY *          N/A     77  49  37 SW3       30.11F
$$

IAZ004>006-015-016-023>025-035-036-232100-
   NORTH CENTRAL IOWA

CITY           SKY/WX    TMP DP  RH WIND       PRES   REMARKS
ALGONA *       SUNNY     75  52  43 VRB3      30.11F
CLARION *      SUNNY     75  52  43 NW3G12    30.11F
ESTHERVILLE    PTSUNNY   74  51  44 CALM      30.10F
FORT DODGE *     N/A     76  52  43 CALM      30.11F
MASON CITY     MOSUNNY   75  48  38 NW9       30.12F
FOREST CITY *    N/A     73  50  43 NW7       30.11F
WEBSTER CITY * SUNNY     75  52  43 CALM      30.09F
IOWA FALLS *     N/A     76  51  40 SW3       30.12F
$$

IAZ007>011-017>019-026>030-037>042-050>054-066-232100-
   NORTHEAST IOWA

CITY           SKY/WX    TMP DP  RH WIND       PRES   REMARKS
CEDAR RAPIDS   MOSUNNY   77  48  35 NW7G17    30.08F
CHARLES CITY * SUNNY     75  50  41 NW12      30.10F
CLINTON *      MOSUNNY   75  55  49 NW13      30.07F
DECORAH *      MOSUNNY   73  50  43 NW12G22   30.07F
DUBUQUE        MOSUNNY   73  51  46 NW10      30.08F
MONTICELLO *   MOSUNNY   77  52  41 NW12      30.08S
OELWEIN *      MOSUNNY   73  52  46 NW10G17   30.10F
WATERLOO       MOSUNNY   76  48  37 NW10      30.08F
$$

IAZ064-065-067-068-078-232100-
   EAST CENTRAL IOWA

CITY           SKY/WX    TMP DP  RH WIND       PRES   REMARKS
DAVENPORT      MOSUNNY   76  51  41 NW8G18    30.09F
IOWA CITY      MOSUNNY   79  49  34 NW10G18   30.09F
MT. PLEASANT * SUNNY     77  47  34 NW13      30.09F
MUSCATINE *    SUNNY     79  48  34 NW13G20   30.08F
QUAD CITIES    MOSUNNY   80  48  32 NW14G21   30.06F
$$

IAZ062-063-075>077-085>089-095>099-232100-
   SOUTHEAST IOWA

CITY           SKY/WX    TMP DP  RH WIND       PRES   REMARKS
BURLINGTON     SUNNY     78  52  40 N12       30.08F
FAIRFIELD *    SUNNY     77  46  33 VRB6G14   30.09F
FORT MADISON * SUNNY     75  54  46 NW5       30.09F
KEOKUK *       SUNNY     77  50  38 VRB7      30.08F
OSKALOOSA *      N/A     77  49  37 NW7       30.11F
CENTERVILLE *    N/A     77  52  41 N9        30.12F
OTTUMWA        SUNNY     79  48  33 NW9       30.09F
WASHINGTON *   SUNNY     75  54  46 NW8       30.10F
$$

ABBREVIATIONS USED IN REMARKS
   TC - TEMPERATURES IN CELSIUS
  WCI - WIND CHILL INDEX
   HX - HEAT INDEX
  VSB - VISIBILITY
$$





USA.gov is the U.S. government's official web portal to all federal, state and local government web resources and services.